星链-36443(STARLINK-36443)

导读

STARLINK-36443是美国SpaceX公司于2026年1月12日发射的星链低轨互联网卫星,运行于约550公里近地轨道,属于星链星座扩容的最新卫星之一。它搭载相控阵天线与激光星间链路,配合OFDM传输技术,可实现低时延高速通信,为全球偏远地区、航空航海场景提供宽带互联网接入,支持手机直连服务,进一步完善了星链的全球覆盖能力。

Basic Information
目录编号:
67431
目录名称:
STARLINK-36443
国际标识:
2026-005AD
轨道中心:
EARTH
卫星名称:
星链-36443
卫星全名:
星链-36443(STARLINK-36443)
卫星状态:
在轨 (已飞行236 天)
发射日期:
2026-01-12 UTC
国别 :
美国 (US)
星等 :
--
Orbit Information
数据来源 国际轨道数据
星历时间: 2026-09-05T12:53:57+0800
8小时前
查看轨道信息
半长轴: 6861.179km
偏心率: 0.0000901
轨道倾角: 42.999°
近地点辐角 207.256°
升交点赤经 303.933°
平近点角 152.824°
近地点: 482.423km
远地点: 483.661km
周期: 94.267分钟
每日圈数: 15.275825
Detailed Information
固有亮度:
5
最大亮度:
2.5
卫星平台:
Starlink V1.0
覆盖范围:
全球
运营商:
太空探索技术公司
运营商所在国:
美国
制造商(研发单位):
太空探索技术公司
制造商所在国:
美国
使用方式:
暂无
Satellite Introduction
Starlink 计划是 SpaceX 推出的全球卫星互联网项目,通过发射低轨道卫星,为全球尤其是偏远地区提供高速、低延迟的互联网服务。自 2019 年起,Starlink 已部署数千颗卫星,旨在缩小全球数字鸿沟,推动互联网普及。该项目还为军事、航空等行业提供通信支持,带来广泛经济效益。
2D Orbit Map
3D Orbit Map
Orbit Altitude Analysis Chart
Orbit Inclination Analysis Chart
Orbit Comprehensive Analysis Chart
View Comprehensive Chart
Conjunction Data List
Event ID Objects TCA Miss Dist (km) Collision Risk Probability Collision Risk Index (CRI) Action
CDM_260829-135905-655406-743122
2026-08-29T
13:59:10+0000
0.780 km
远距离
1.271441E-5 中风险 0.57
CDM_260903-044104-588806-743122
2026-09-03T
04:41:28+0000
1.029 km
极远距离
8.590459E-6 低风险 0.54
CDM_260905-131805-993906-743121
2026-09-05T
13:18:13+0000
1.511 km
极远距离
4.193865E-6 低风险 0.47
CDM_260907-150706-679906-743121
2026-09-07T
15:07:05+0000
1.966 km
极远距离
2.211445E-6 低风险 0.42
CDM_260903-015706-049806-743121
2026-09-03T
01:57:20+0000
2.484 km
极远距离
1.151386E-6 低风险 0.36
CDM_260902-222005-655406-743121
2026-09-02T
22:20:37+0000
1.700 km
极远距离
1.053188E-6 低风险 0.35
CDM_260907-203606-679906-743121
2026-09-07T
20:36:34+0000
2.986 km
极远距离
1.026799E-6 低风险 0.35
CDM_260829-122505-655406-743121
2026-08-29T
12:25:01+0000
2.259 km
极远距离
5.658173E-7 极低风险 0.3